WZZ81HW LEPA-LBSF

Flight info

Callsign WZZ81HW
Flight time N/A
Altitude 36000
Route MORSS DCT BAVON DCT ORKUM DCT ELSAG DCT ALG DCT XOLTA DCT BUNEX DCT BAJUN DCT NISVA
Aircraft A321/M-SDE1E2E3FGIJ1J4RWXY/LB1

Departure

Time N/A
Airport Palma de Mallorca Airport (LEPA)

Arrival

Time 2026-04-27 14:09
Airport Sofia Airport (LBSF)
Time Latitude Longitude Altitude Speed Heading
2026-04-27 13:56 42.89952 22.91406 21585 ft 396 kts 131°
2026-04-27 13:56 42.88168 22.94246 20865 ft 391 kts 131°
2026-04-27 13:56 42.86438 22.97002 20175 ft 385 kts 131°
2026-04-27 13:56 42.84713 22.99749 19491 ft 378 kts 131°
2026-04-27 13:57 42.83017 23.02443 18827 ft 372 kts 131°
2026-04-27 13:57 42.81342 23.05100 18134 ft 367 kts 131°
2026-04-27 13:57 42.79691 23.07717 17380 ft 361 kts 131°
2026-04-27 13:57 42.78063 23.10292 16660 ft 356 kts 131°
2026-04-27 13:58 42.76456 23.12828 15952 ft 352 kts 131°
2026-04-27 13:58 42.74865 23.15334 15258 ft 348 kts 130°
2026-04-27 13:58 42.73293 23.17805 14580 ft 344 kts 130°
2026-04-27 13:58 42.71736 23.20254 13917 ft 340 kts 130°
2026-04-27 13:59 42.70196 23.22684 13172 ft 338 kts 131°
2026-04-27 13:59 42.68675 23.25086 12578 ft 332 kts 131°
2026-04-27 13:59 42.67685 23.26650 12253 ft 326 kts 131°
2026-04-27 13:59 42.66221 23.28957 11734 ft 319 kts 132°
2026-04-27 14:00 42.64782 23.31216 11239 ft 313 kts 132°
2026-04-27 14:00 42.63400 23.33462 10742 ft 308 kts 127°
2026-04-27 14:00 42.62326 23.35945 10260 ft 303 kts 115°
2026-04-27 14:00 42.61627 23.38627 9755 ft 300 kts 103°
2026-04-27 14:01 42.61304 23.41399 9234 ft 296 kts 94°
2026-04-27 14:01 42.61147 23.44166 8705 ft 293 kts 94°
2026-04-27 14:01 42.60983 23.46905 8204 ft 290 kts 95°
2026-04-27 14:01 42.60815 23.49613 7706 ft 287 kts 95°
2026-04-27 14:02 42.60646 23.52298 7211 ft 284 kts 95°
2026-04-27 14:02 42.60481 23.54957 6731 ft 282 kts 95°
2026-04-27 14:02 42.60315 23.57590 6225 ft 279 kts 95°
2026-04-27 14:02 42.60150 23.60202 5717 ft 276 kts 96°
2026-04-27 14:03 42.59988 23.62782 5218 ft 272 kts 96°
2026-04-27 14:03 42.59839 23.65326 4705 ft 267 kts 92°
2026-04-27 14:03 42.60176 23.67764 4238 ft 263 kts 64°
2026-04-27 14:03 42.61326 23.69603 4014 ft 252 kts 33°
2026-04-27 14:04 42.62934 23.70376 4007 ft 242 kts 11°
2026-04-27 14:04 42.64553 23.70522 4016 ft 225 kts 356°
2026-04-27 14:04 42.65977 23.69835 4006 ft 212 kts 329°
2026-04-27 14:04 42.67066 23.68620 4028 ft 197 kts 312°
2026-04-27 14:05 42.67804 23.67101 4023 ft 189 kts 294°
2026-04-27 14:05 42.68178 23.65430 4014 ft 186 kts 277°
2026-04-27 14:05 42.68296 23.63676 4009 ft 187 kts 274°
2026-04-27 14:05 42.68407 23.61919 4005 ft 187 kts 273°
2026-04-27 14:06 42.68515 23.60177 3998 ft 184 kts 274°
2026-04-27 14:06 42.68622 23.58463 3846 ft 179 kts 274°
2026-04-27 14:06 42.68727 23.56762 3635 ft 180 kts 273°
2026-04-27 14:06 42.68828 23.55121 3402 ft 168 kts 275°
2026-04-27 14:07 42.68923 23.53585 3165 ft 158 kts 274°
2026-04-27 14:07 42.69012 23.52127 2955 ft 152 kts 274°
2026-04-27 14:07 42.69099 23.50710 2779 ft 149 kts 275°
2026-04-27 14:07 42.69185 23.49317 2606 ft 147 kts 276°
2026-04-27 14:08 42.69275 23.47931 2411 ft 147 kts 276°
2026-04-27 14:08 42.69357 23.46564 2220 ft 144 kts 275°
2026-04-27 14:08 42.69433 23.45209 2039 ft 143 kts 276°
2026-04-27 14:08 42.69517 23.43865 1861 ft 143 kts 276°
2026-04-27 14:09 42.69594 23.42613 1744 ft 115 kts 275°
2026-04-27 14:09 42.69649 23.41687 1752 ft 85 kts 274°
2026-04-27 14:09 42.69683 23.41064 1750 ft 43 kts 270°
2026-04-27 14:09 42.69647 23.40833 1746 ft 21 kts 251°
2026-04-27 14:10 42.69584 23.40645 1744 ft 23 kts 245°
2026-04-27 14:10 42.69508 23.40488 1748 ft 15 kts 208°
2026-04-27 14:10 42.69429 23.40452 1745 ft 11 kts 197°
2026-04-27 14:10 42.69348 23.40419 1746 ft 13 kts 197°
2026-04-27 14:11 42.69253 23.40379 1749 ft 16 kts 197°
2026-04-27 14:11 42.69184 23.40350 1749 ft 6 kts 197°
2026-04-27 14:11 42.69157 23.40304 1747 ft 10 kts 274°
2026-04-27 14:11 42.69174 23.40229 1749 ft 9 kts 287°
2026-04-27 14:12 42.69195 23.40132 1745 ft 12 kts 287°
2026-04-27 14:12 42.69198 23.40063 1748 ft 5 kts 228°
2026-04-27 14:12 42.69162 23.40044 1748 ft 4 kts 199°
2026-04-27 14:12 42.69143 23.40036 1748 ft 2 kts 196°
2026-04-27 14:13 42.69140 23.40035 1748 ft 0 kts 196°